Home > Weather > Kingstown > Past weeks

Flag for Saint Vincent and Grenadines Past Weather in Kingstown, Saint Vincent and Grenadines — Yesterday and Last 2 Weeks

Now
81 °F

Sprinkles. Broken clouds.


Feels Like: 86 °F
Forecast: 80 / 86 °F
Wind: 13 mph from East

Location: Arnos Vale

Current Time: May 30, 2016 at 10:30:29 AM

Latest Report: May 30, 2016 at 10:00 AM


Visibility: N/A

Pressure: 29.95 "Hg

Humidity: 84%

Dew Point: 75 °F

Location of KingstownLocation

Past Weather in Kingstown — Graph

°F

Kingstown Temperature Yesterday

Maximum temperature yesterday: 86 °F (at 11:00 AM)
Minimum temperature yesterday: 81 °F (at 8:00 PM)
Average temperature yesterday: 83 °F

High & Low Weather Summary for the Past Weeks

 TemperatureHumidityPressure
High88 °F (May 15, 11:00 AM)89% (May 17, 6:00 AM)30.07 "Hg (May 17, 6:00 AM)
Low79 °F (May 19, 7:00 PM)59% (May 25, 11:00 AM)29.86 "Hg (May 27, 4:00 PM)
Average84 °F74%29.98 "Hg
* Reported May 15 9:00 AM — May 30 9:00 AM, Kingstown, Weather by CustomWeather, © 2016

Note: Actual official high and low records may vary slightly from our data, if they occured in-between our weather recording intervals... More about our weather records

Advertising

Kingstown Weather History for the Previous 24 Hours

Scroll right to see more
 ConditionsComfort  
Time TempWeatherWind HumidityBarometerVisibility
9:00 AM
Mon, May 30
84 °FBroken clouds.9 mph79%29.95 "HgN/A
8:00 AM84 °FBroken clouds.9 mph79%29.95 "HgN/A
7:00 AM82 °FBroken clouds.9 mph84%29.95 "HgN/A
6:00 AM82 °FSprinkles. Scattered clouds.9 mph84%29.92 "HgN/A
11:00 PM
Sun, May 29
81 °FPassing clouds.6 mph84%29.98 "HgN/A
10:00 PM82 °FWarm.6 mph79%29.98 "HgN/A
9:00 PM81 °FPassing clouds.6 mph84%29.98 "HgN/A
8:00 PM81 °FPassing clouds.6 mph84%29.98 "HgN/A
6:00 PM82 °FScattered clouds.9 mph84%29.95 "HgN/A
5:00 PM84 °FScattered clouds.13 mph79%29.92 "HgN/A
4:00 PM84 °FBroken clouds.14 mph79%29.92 "HgN/A
3:00 PM84 °FSprinkles. Broken clouds.10 mph79%29.95 "HgN/A
2:00 PM84 °FScattered clouds.12 mph79%29.95 "HgN/A
1:00 PM86 °FScattered clouds.12 mph75%29.98 "HgN/A
12:00 PM86 °FBroken clouds.13 mph75%29.98 "HgN/A
11:00 AM86 °FPartly sunny.13 mph75%29.98 "HgN/A
10:00 AM84 °FBroken clouds.12 mph79%29.98 "HgN/A
Weather by CustomWeather, © 2016

See weather overviewHow to use our weather pages